Location: Boiro
(42.6475°N, 8.8834°W)
Time: 20:31:47
(UTC+02:00)

AO-73 - Pass Details

Date: 30 April 2024
Orbit: 560 x 625 km, 97.7° (Epoch: 20 May)

Event Time Altitude Azimuth Distance (km) Brightness Sun altitude
Rises 05:22:26 0° 18° (NNE) 2,924 ? -20.5°
Reaches altitude 10° 05:24:43 10° 24° (NNE) 2,013 ? -20.2°
Maximum altitude 05:28:57 47° 99° (E) 836 ? -19.7°
Enters shadow 05:31:38 20° 164° (SSE) 1,427 ? -19.3°
